Wind_Speed
18 18 19 20 20 21 22 22 22 22 23 23 24 24 25 25 25 25 25 24 25 24 25 25 25 25 26 26 27 27 27 28 29 29 30 30 30 30 29 29 29 29 29 29
20 20 20 20 21 22 22 23 23 23 23 23 24 24 25 25 25 25 26 26 26 26 26 27 27 27 27 28 28 28 28 29 30 30 31 31 31 30 30 30 30 30 30 29
21 22 22 21 21 22 23 23 24 24 24 24 24 25 26 26 25 26 26 26 27 27 28 28 28 28 28 29 29 29 30 31 32 32 32 32 32 32 32 32 32 31 31 30
22 21 22 21 21 22 24 25 25 25 25 25 26 26 26 27 26 26 26 26 27 28 28 29 29 30 30 30 31 31 32 32 33 33 33 33 33 33 33 33 33 33 32 32
22 22 23 22 21 22 24 25 26 25 25 26 27 27 27 27 27 27 27 27 27 28 28 29 30 31 31 31 31 32 32 32 33 33 33 34 34 34 34 34 34 34 34 33
23 23 24 24 23 22 24 26 25 25 25 25 27 27 26 27 27 27 28 28 28 28 28 29 30 31 32 32 33 33 33 32 33 33 34 34 34 34 34 34 35 35 35 35
25 25 26 25 25 25 26 26 26 26 26 26 27 27 27 27 27 28 28 28 28 28 28 29 30 31 32 33 33 33 33 33 34 35 35 34 34 34 34 35 35 35 36 36
25 26 26 26 26 27 28 29 28 28 28 28 27 27 27 27 28 29 29 29 29 29 30 30 31 31 32 33 34 34 34 34 34 35 35 35 35 35 35 35 35 35 35 36
27 28 28 27 27 27 28 29 29 29 29 29 29 28 28 29 29 29 30 31 31 31 31 32 32 32 33 33 34 35 36 36 36 36 35 35 36 36 36 36 36 36 36 36
27 27 29 29 29 29 28 29 30 31 30 29 29 29 29 29 30 30 30 30 31 32 32 33 33 33 33 34 34 35 36 36 35 35 36 36 36 36 37 36 36 36 35 35
28 29 30 30 29 30 30 31 31 31 31 31 31 31 31 31 31 31 31 32 32 33 34 34 34 34 35 35 35 35 35 35 36 36 36 36 36 36 36 36 36 36 35 35
29 29 31 32 31 31 32 32 32 32 32 32 33 33 32 32 32 32 32 32 32 33 33 33 34 34 35 35 35 35 35 35 36 37 37 37 37 36 36 36 36 36 36 36
30 30 32 32 33 33 33 33 33 33 33 33 33 33 33 33 33 32 32 32 32 33 33 34 34 35 35 35 35 35 35 36 37 37 37 37 37 36 35 34 35 36 35 35
30 30 31 32 33 34 34 34 33 33 33 33 33 33 33 33 33 33 34 34 34 34 34 35 35 35 34 34 34 35 35 36 36 36 37 37 37 36 35 33 32 33 33 33
31 31 31 32 33 34 34 34 34 34 34 34 33 33 33 33 34 34 34 35 35 35 35 34 34 34 34 34 34 35 35 35 35 35 35 35 35 35 34 33 31 30 29 29
32 32 32 33 33 33 34 34 34 34 34 34 33 34 34 34 34 34 34 34 34 34 33 33 33 33 33 33 34 34 34 35 35 34 34 34 35 34 33 32 31 31 29 29
32 33 33 33 33 33 33 33 34 35 35 34 34 34 34 34 34 33 33 33 33 33 33 33 33 33 33 33 33 33 34 34 34 34 34 34 33 33 32 31 31 30 30 29
33 33 34 34 34 34 34 34 34 34 34 34 33 33 33 34 34 33 33 33 33 33 33 34 33 33 33 33 33 33 33 33 33 33 32 32 32 31 31 30 30 30 30 29
33 33 34 34 34 34 33 33 33 33 33 32 32 32 33 34 34 34 34 34 34 34 34 34 34 33 33 33 33 33 33 33 33 32 32 31 30 30 30 29 29 29 28 28
32 32 33 33 32 33 33 32 32 32 32 32 32 32 33 33 34 34 34 34 34 34 33 33 32 32 32 32 32 32 32 32 32 32 31 30 29 29 29 28 28 28 28 27
31 31 32 33 33 33 33 33 33 33 32 32 32 33 32 32 33 33 33 33 33 32 32 31 31 31 31 31 31 31 31 31 30 30 30 29 28 28 27 27 26 26 26 26
30 31 32 32 33 32 32 32 32 31 31 31 32 32 32 32 32 32 32 31 31 31 31 30 30 30 30 30 30 31 30 30 29 28 28 28 27 26 26 25 25 25 25 24
30 30 30 30 30 30 30 30 30 30 30 31 31 31 31 31 30 30 30 30 30 30 30 29 29 29 29 29 29 29 29 28 28 28 28 27 26 25 24 24 23 23 23 23
29 29 29 29 29 29 29 28 28 29 29 30 30 30 30 30 29 29 28 28 28 28 28 28 29 29 28 28 27 27 27 26 26 26 26 25 25 24 23 23 23 22 22 22
27 27 27 27 27 27 26 26 26 27 27 28 28 29 29 28 28 27 27 27 26 26 26 27 27 28 27 27 26 26 25 25 25 24 23 23 23 22 22 21 21 20 20 20
25 25 25 25 25 25 24 24 25 25 26 26 26 26 26 26 26 25 25 25 25 26 26 27 27 26 26 26 25 24 23 23 22 22 22 22 22 21 21 21 20 20 19 19
24 24 24 25 24 24 24 23 24 24 24 24 24 24 24 24 24 23 24 24 24 25 25 25 25 24 24 24 24 23 22 22 22 22 22 21 21 21 20 20 19 19 19 18
Wind_Direction
266 261 263 267 269 266 266 267 270 271 274 277 278 277 275 276 277 278 278 278 276 274 273 273 275 276 279 281 283 284 286 288 289 288 288 289 289 289 289 290 290 291 291 291
266 265 266 264 267 268 268 269 273 275 276 277 278 277 277 277 278 278 279 279 277 274 273 273 275 277 279 280 282 284 286 288 289 288 289 290 290 289 289 289 289 290 291 290
269 269 268 266 269 268 270 272 273 275 277 278 277 278 280 280 279 279 279 279 278 277 276 275 275 277 278 279 281 283 286 287 288 287 289 290 288 287 288 288 288 288 288 289
272 271 268 273 273 272 272 273 274 276 278 280 279 279 279 280 280 280 280 280 280 278 277 276 276 276 278 280 282 283 284 286 288 288 288 288 288 288 288 287 287 287 287 287
272 271 271 273 277 275 276 276 277 278 278 279 280 279 278 280 281 280 280 281 280 280 279 278 277 277 278 280 282 283 283 285 287 288 289 289 289 289 288 287 286 287 286 286
270 272 272 273 276 279 279 279 279 283 283 281 281 281 281 280 281 281 281 280 280 279 280 280 280 279 279 280 281 282 283 284 286 288 289 289 289 288 288 288 287 286 285 286
270 270 271 273 275 277 279 282 283 285 287 285 283 283 283 282 281 281 281 281 280 279 279 281 282 282 281 281 281 282 283 285 285 286 288 288 289 288 288 289 289 288 286 285
271 271 271 272 273 276 279 281 282 283 285 285 285 284 284 284 283 282 282 281 281 281 281 283 284 284 284 284 282 282 283 284 285 285 286 286 287 288 288 288 289 290 288 287
272 272 273 272 274 276 278 279 280 282 284 284 285 285 285 284 285 285 283 283 282 283 283 284 284 284 285 285 283 282 282 283 284 285 286 286 287 288 288 288 289 289 288 287
271 272 273 273 273 276 278 279 280 282 283 282 283 283 284 285 285 285 285 285 285 285 286 286 286 286 286 287 286 284 283 283 284 286 286 286 288 289 290 289 288 288 286 288
268 271 273 273 274 276 277 279 282 282 280 280 281 282 284 284 285 284 284 285 286 287 287 287 287 287 287 288 287 286 285 285 285 286 287 287 288 289 290 290 289 288 287 288
269 269 270 271 273 277 278 279 280 280 281 280 280 281 282 284 284 285 285 285 286 287 288 288 288 288 289 289 289 288 287 287 287 287 287 288 288 289 290 290 290 289 288 287
270 269 270 271 273 275 278 279 280 281 282 280 280 281 282 283 284 284 285 286 287 289 289 289 288 289 290 289 289 290 290 290 289 289 289 288 288 288 288 289 289 289 288 287
272 271 271 272 273 275 277 279 280 281 282 281 280 281 282 283 284 284 285 286 288 289 289 290 289 289 289 290 290 291 292 292 292 292 291 290 288 286 287 289 289 288 287 286
272 273 274 274 274 275 277 278 279 280 280 280 280 281 282 283 283 285 286 287 288 289 289 290 290 290 289 290 291 292 293 293 294 294 293 292 290 287 286 286 287 288 287 287
272 274 274 273 274 277 278 280 280 281 280 280 279 280 281 282 283 284 286 288 288 288 289 290 290 290 291 291 292 293 294 294 294 294 295 294 292 289 286 285 285 286 286 286
272 273 273 274 275 277 279 281 281 281 280 280 279 279 281 282 283 284 286 286 287 288 289 290 290 291 291 292 292 293 295 295 295 295 296 295 294 290 287 285 285 286 285 286
274 274 275 276 277 280 280 281 282 282 282 281 279 279 280 282 283 283 283 285 286 287 289 290 290 290 290 291 292 294 295 295 295 295 296 296 293 290 288 286 287 286 285 285
274 276 276 277 277 279 281 282 282 282 282 281 281 281 281 282 283 283 283 285 286 288 288 289 290 290 290 291 292 293 294 294 294 295 296 296 294 291 289 287 287 287 286 285
274 276 277 278 279 279 281 283 283 283 282 282 282 282 283 282 283 283 284 285 287 287 287 288 288 289 290 291 292 292 293 294 295 295 295 295 295 293 291 288 285 285 286 285
275 277 279 279 280 281 282 283 284 283 282 283 284 283 284 284 284 284 284 285 286 286 287 288 289 290 290 291 292 293 294 294 295 296 297 296 295 293 292 290 288 286 286 287
277 279 280 280 281 282 282 282 282 282 282 283 284 284 284 285 285 285 285 285 285 286 286 287 289 291 292 293 293 294 294 294 294 295 297 296 293 293 292 290 289 287 287 287
279 281 281 281 281 282 282 282 282 282 283 283 284 285 286 286 286 286 286 286 285 286 286 287 289 292 293 294 295 295 294 294 294 295 296 296 294 293 292 291 290 289 288 287
280 281 282 282 282 282 282 282 283 283 283 284 285 285 286 286 286 287 286 286 286 287 288 288 290 292 293 294 295 295 295 295 294 296 297 296 295 295 294 292 291 290 289 288
279 279 280 283 283 283 283 283 285 285 285 286 286 285 285 285 285 286 287 287 288 289 289 290 291 292 292 293 294 295 296 296 297 297 297 296 296 296 296 295 294 292 290 286
277 278 280 282 284 284 284 285 287 288 287 287 287 286 285 285 286 287 287 288 289 290 292 292 292 293 293 294 294 295 297 297 298 297 298 298 298 297 296 295 294 292 290 287
277 279 281 283 284 285 286 286 288 289 290 290 289 288 286 285 285 287 290 290 291 292 294 295 295 294 294 295 296 295 295 296 297 297 298 298 298 297 297 296 295 293 290 288
Height
5781 5781 5781 5781 5782 5782 5783 5783 5783 5783 5781 5781 5780 5780 5778 5778 5777 5776 5776 5776 5776 5776 5776 5775 5775 5775 5775 5774 5773 5772 5771 5770 5768 5766 5765 5762 5760 5758 5756 5754 5752 5750 5747 5745
5775 5776 5776 5777 5776 5776 5777 5777 5776 5776 5775 5775 5773 5772 5771 5770 5770 5770 5769 5769 5769 5768 5768 5768 5768 5768 5767 5767 5766 5765 5763 5762 5760 5758 5756 5754 5752 5750 5748 5746 5744 5741 5739 5737
5769 5770 5770 5771 5771 5770 5770 5770 5770 5769 5769 5767 5767 5766 5765 5764 5763 5762 5762 5762 5761 5761 5760 5760 5760 5760 5759 5758 5757 5756 5755 5754 5752 5750 5748 5746 5743 5741 5739 5737 5735 5733 5731 5729
5763 5764 5764 5768 5766 5765 5764 5764 5764 5762 5762 5761 5760 5759 5758 5757 5756 5755 5755 5754 5754 5753 5752 5752 5752 5751 5751 5750 5748 5747 5746 5745 5743 5740 5738 5736 5734 5732 5730 5728 5726 5724 5722 5720
5758 5757 5758 5760 5759 5758 5758 5758 5757 5756 5755 5754 5753 5752 5751 5751 5750 5749 5747 5747 5746 5745 5744 5743 5743 5742 5741 5741 5739 5738 5737 5735 5733 5731 5729 5727 5724 5722 5720 5718 5716 5714 5713 5711
5752 5751 5752 5754 5753 5752 5752 5751 5751 5749 5748 5747 5746 5745 5745 5744 5742 5741 5740 5739 5738 5737 5736 5735 5734 5733 5733 5732 5730 5729 5727 5725 5724 5721 5719 5717 5715 5712 5710 5708 5706 5704 5703 5701
5745 5745 5745 5747 5747 5746 5746 5745 5744 5743 5741 5740 5739 5738 5737 5736 5735 5733 5732 5731 5730 5729 5728 5727 5726 5725 5724 5722 5721 5719 5717 5715 5714 5712 5709 5707 5704 5702 5700 5698 5696 5694 5693 5691
5739 5739 5741 5740 5740 5740 5739 5737 5736 5735 5734 5733 5731 5730 5729 5728 5727 5726 5724 5723 5722 5721 5720 5719 5717 5716 5714 5713 5711 5710 5708 5706 5704 5702 5699 5697 5695 5692 5690 5688 5686 5684 5682 5681
5733 5734 5733 5733 5733 5732 5731 5730 5729 5728 5727 5725 5724 5723 5722 5720 5719 5718 5717 5715 5714 5713 5711 5710 5708 5707 5705 5703 5701 5699 5697 5695 5693 5691 5689 5687 5685 5682 5680 5678 5676 5674 5672 5670
5725 5725 5725 5725 5725 5724 5723 5722 5721 5720 5719 5718 5717 5715 5714 5713 5711 5710 5708 5707 5705 5704 5702 5701 5699 5697 5695 5693 5691 5689 5687 5685 5683 5681 5679 5677 5674 5672 5670 5667 5665 5663 5661 5660
5718 5718 5717 5716 5716 5716 5716 5715 5713 5712 5711 5709 5708 5707 5706 5705 5703 5702 5700 5698 5696 5695 5693 5691 5689 5687 5685 5683 5681 5679 5677 5674 5673 5671 5669 5666 5664 5662 5659 5656 5654 5651 5650 5648
5710 5710 5708 5708 5708 5707 5707 5706 5705 5704 5703 5701 5699 5698 5697 5696 5694 5693 5691 5689 5687 5685 5683 5681 5679 5677 5675 5673 5670 5668 5666 5664 5662 5660 5657 5655 5653 5652 5649 5646 5643 5640 5638 5637
5700 5700 5699 5699 5699 5698 5698 5697 5696 5694 5693 5692 5690 5689 5688 5687 5685 5684 5682 5680 5678 5676 5674 5672 5670 5668 5665 5663 5660 5658 5656 5653 5651 5649 5646 5644 5642 5640 5638 5636 5632 5630 5628 5626
5692 5691 5691 5690 5690 5689 5688 5687 5686 5685 5684 5682 5681 5680 5679 5677 5676 5675 5673 5671 5669 5666 5664 5662 5660 5658 5655 5653 5650 5648 5645 5643 5640 5638 5635 5633 5631 5629 5627 5624 5622 5620 5617 5615
5683 5682 5682 5681 5680 5679 5679 5678 5677 5676 5674 5673 5672 5671 5670 5668 5667 5665 5663 5661 5659 5656 5654 5652 5650 5648 5645 5643 5641 5638 5635 5633 5630 5627 5624 5622 5619 5617 5615 5613 5612 5610 5608 5606
5674 5673 5672 5671 5671 5670 5669 5668 5667 5666 5665 5664 5663 5661 5660 5659 5657 5655 5654 5651 5649 5647 5645 5643 5640 5638 5636 5633 5631 5628 5625 5623 5620 5617 5614 5612 5609 5607 5605 5603 5602 5600 5598 5596
5664 5664 5663 5663 5662 5661 5660 5658 5657 5656 5655 5653 5652 5651 5650 5649 5647 5646 5644 5641 5639 5637 5635 5633 5631 5628 5626 5623 5621 5618 5616 5613 5610 5607 5605 5602 5599 5597 5595 5593 5592 5590 5589 5587
5654 5654 5654 5653 5652 5651 5650 5649 5647 5646 5644 5643 5642 5641 5640 5639 5637 5636 5634 5632 5630 5628 5626 5623 5621 5618 5616 5614 5611 5609 5606 5603 5601 5598 5596 5593 5590 5587 5585 5584 5582 5581 5579 5578
5645 5645 5644 5643 5643 5642 5641 5639 5638 5637 5635 5634 5632 5631 5630 5628 5627 5625 5624 5622 5620 5618 5616 5613 5611 5608 5606 5604 5601 5599 5596 5594 5591 5589 5586 5583 5581 5578 5576 5575 5573 5572 5570 5569
5635 5635 5635 5634 5633 5632 5631 5630 5629 5627 5626 5624 5623 5621 5620 5618 5616 5615 5614 5612 5610 5608 5605 5603 5601 5599 5597 5594 5592 5590 5587 5585 5582 5580 5577 5575 5572 5570 5568 5566 5564 5563 5561 5560
5626 5626 5625 5625 5624 5623 5621 5620 5619 5618 5616 5615 5613 5611 5610 5608 5606 5605 5603 5602 5600 5597 5596 5594 5592 5590 5587 5585 5583 5581 5578 5576 5573 5571 5568 5566 5564 5562 5559 5557 5556 5554 5553 5552
5617 5617 5616 5615 5614 5613 5612 5611 5609 5608 5607 5605 5603 5602 5600 5598 5597 5595 5593 5592 5590 5588 5586 5584 5582 5580 5578 5576 5574 5572 5569 5567 5565 5563 5560 5558 5556 5554 5552 5550 5548 5547 5545 5544
5608 5607 5607 5606 5605 5604 5602 5601 5600 5599 5597 5596 5594 5592 5591 5589 5587 5586 5584 5583 5580 5579 5577 5575 5573 5571 5569 5567 5565 5563 5561 5559 5557 5554 5552 5550 5548 5546 5544 5543 5541 5540 5538 5537
5599 5598 5598 5597 5596 5595 5593 5592 5591 5589 5588 5586 5585 5583 5582 5580 5578 5577 5575 5573 5571 5570 5568 5566 5564 5562 5560 5559 5557 5555 5553 5551 5549 5546 5544 5542 5540 5538 5537 5535 5534 5533 5531 5530
5590 5590 5589 5588 5587 5586 5585 5584 5582 5581 5579 5578 5576 5574 5573 5571 5570 5568 5567 5565 5563 5562 5560 5558 5556 5554 5552 5551 5549 5547 5545 5543 5541 5539 5537 5535 5533 5531 5530 5528 5527 5525 5524 5523
5582 5582 5581 5580 5579 5578 5577 5575 5574 5573 5571 5570 5568 5566 5565 5563 5562 5560 5559 5557 5556 5554 5552 5550 5548 5546 5545 5543 5541 5540 5537 5536 5534 5532 5530 5529 5527 5525 5523 5522 5520 5519 5517 5516
5575 5574 5573 5573 5571 5570 5569 5568 5567 5565 5564 5562 5560 5559 5557 5556 5554 5553 5551 5550 5548 5546 5545 5543 5541 5539 5537 5536 5534 5532 5531 5529 5528 5526 5524 5523 5521 5519 5517 5516 5514 5513 5511 5510